Terug naar catalogus

METEOR 2-5 DEB

ActiefPO
NORAD 38274·DEBRIS·🇷🇺 Russia

Gelanceerd Oct 31, 1979 vanaf Plesetsk Cosmodrome

Loading…

Volgende Passages (komende 24 uur)

TLE

VerouderendSource: Space-Track

Epoch: Sep 7, 2026, 16:09 UTC

1 38274U 79095BU  26250.67340291  .00005329  00000-0  13898-2 0  9991
2 38274  81.1881  20.8531 0015564  82.5767 277.7193 14.49342643624444

Volg METEOR 2-5 DEB in realtime met AllMySat

Download on the App Store